Terminal Aerodrome Forecast
Issued by NWS

Home | Current Version | Previous Version | Text Only | Print | Product List | Glossary Off
Versions: 1 2 3 4 5 6 7 8 9 10 11 12 13 14 15 16 17 18 19 20 21 22 23 24 25 26 27

611
FTUS43 KLOT 010259 CCB
TAFDPA
TAF COR
KDPA 010259Z 0103/0124 24013G20KT P6SM VCSH OVC018
     FM010500 25013G20KT 6SM -SHSN OVC015
     FM010800 26012G18KT 5SM -SHSN BR OVC008
     FM011000 27012G18KT P6SM OVC010
     FM011500 27013G21KT P6SM OVC025=

USA.gov is the U.S. government's official web portal to all federal, state and local government web resources and services.